Location: Ciserano
(45.5833°N, 9.6000°E)
Time: 13:10:56
(UTC+00:00)

Lacrosse 4 Rocket - Pass Details

Date: 29 November 2020
Orbit: 537 x 620 km, 68.0° (Epoch: 26 January)

Event Time Altitude Azimuth Distance (km) Brightness Sun altitude
Exits shadow 05:14:33 18° 250° (WSW) 1,514 3.1 -14.4°
Drops below altitude 10° 05:17:17 10° 211° (SSW) 1,952 4.0 -14.0°
Sets 05:20:09 0° 192° (SSW) 2,863 5.0 -13.5°
